CST,Max TemperatureF,Mean TemperatureF,Min TemperatureF,Max Dew PointF,MeanDew PointF,Min DewpointF,Max Humidity, Mean Humidity, Min Humidity, Max Sea Level PressureIn, Mean Sea Level PressureIn, Min Sea Level PressureIn, Max VisibilityMiles, Mean VisibilityMiles, Min VisibilityMiles, Max Wind SpeedMPH, Mean Wind SpeedMPH, Max Gust SpeedMPH,PrecipitationIn, CloudCover, Events, WindDirDegrees
2013-2-1,27,19,12,18,9,2,74,64,53,30.55,30.44,30.33,10,10,10,18,11,,0.00,2,,273
2013-2-2,41,34,26,27,23,17,89,67,49,30.33,30.17,30.06,10,10,10,15,9,,0.00,6,,230
2013-2-3,34,28,21,31,27,18,100,88,69,30.21,30.08,30.00,10,6,1,16,4,,0.03,6,Snow,254
2013-2-4,48,34,21,43,33,18,100,85,58,30.14,29.95,29.86,10,8,2,20,9,23,0.06,5,Rain,207
2013-2-5,54,43,32,40,35,30,100,82,55,30.11,29.97,29.92,10,8,3,13,7,,0.00,4,,296
2013-2-6,45,37,29,32,30,27,92,71,56,30.29,30.21,30.13,10,9,5,9,4,,0.00,0,,58
2013-2-7,66,51,36,52,43,32,100,75,47,30.14,29.96,29.86,10,8,2,14,7,,0.31,3,Rain,184
2013-2-8,46,40,34,46,34,27,100,82,70,30.39,30.17,29.93,10,9,5,18,14,23,0.02,8,Rain,348
2013-2-9,47,39,31,30,28,26,88,67,46,30.41,30.30,30.14,10,10,10,10,5,,0.00,2,,118
2013-2-10,55,48,41,53,44,29,100,78,54,30.11,29.92,29.78,10,8,2,23,12,29,0.29,6,Rain-Thunderstorm,169
2013-2-11,54,45,36,52,34,27,94,63,38,30.16,30.03,29.84,10,10,10,17,13,25,0.00,0,,258
2013-2-12,48,40,31,33,31,28,92,67,48,30.18,30.07,29.89,10,10,10,6,1,,0.00,0,,46
2013-2-13,43,38,33,36,33,31,100,85,68,29.96,29.90,29.82,10,7,0,9,7,,0.05,5,Fog-Rain-Snow,317
2013-2-14,59,46,34,40,36,33,100,74,45,30.05,29.96,29.91,10,9,5,16,9,,0.00,1,,237
2013-2-15,43,36,27,35,28,21,89,72,47,30.24,30.16,30.05,10,9,6,16,6,20,0.00,4,Rain,319
2013-2-16,34,29,24,22,17,11,88,63,37,30.22,30.19,30.16,10,10,10,15,7,21,0.00,1,,307
2013-2-17,43,32,20,21,19,15,81,59,34,30.30,30.21,30.13,10,10,10,12,4,,0.00,0,,153
2013-2-18,63,48,34,47,37,22,100,70,34,30.12,29.90,29.72,10,8,2,28,16,37,0.58,4,Rain,187
2013-2-19,48,38,26,46,28,17,93,71,47,30.27,30.04,29.79,10,9,2,25,17,32,0.05,4,Rain,293
2013-2-20,30,26,22,17,15,12,71,64,56,30.37,30.32,30.28,10,10,10,12,8,,0.00,2,,349
2013-2-21,36,30,24,35,26,16,97,79,52,30.32,30.09,29.87,10,7,2,16,9,23,0.47,5,Rain,82
2013-2-22,46,40,34,41,37,28,100,91,73,30.06,29.94,29.84,10,6,1,16,9,21,0.01,7,Rain,227
2013-2-23,41,34,28,29,26,23,85,71,52,30.07,30.03,29.98,10,10,10,8,6,,0.00,1,,312
2013-2-24,47,36,26,28,25,23,92,65,42,30.18,30.12,30.05,10,10,7,8,4,,0.00,0,,35
2013-2-25,54,44,34,29,27,25,73,52,37,30.10,29.93,29.61,10,10,9,22,11,30,0.00,2,,80
2013-2-26,50,46,41,47,41,29,100,88,48,29.63,29.47,29.39,10,6,1,22,13,30,0.73,8,Rain,158
2013-2-27,39,36,33,37,34,31,100,87,71,29.87,29.79,29.66,10,8,2,20,13,25,0.02,8,Rain-Snow,264
2013-2-28,38,36,33,34,32,30,97,88,79,30.06,29.96,29.85,10,8,2,15,12,,0.00,8,Rain-Snow,287